Wetterdaten: Freitag, 09.08.2013
Datum Zeit Temperatur Luftfeuchte Luftdruck Regen Wind Richtung Richtung Taupunkt Windchill Windben
09.08.2013 00:00 17,4 C 81 % 1022,9 hPa 0,0 l/m 0,0 km/h (0 Bft) S 180 14,1 C 17,5 C 0,0 km/h (0 Bft)
09.08.2013 00:05 17,4 C 81 % 1022,9 hPa 0,0 l/m 0,0 km/h (0 Bft) S-SW 202 14,1 C 17,5 C 0,0 km/h (0 Bft)
09.08.2013 00:10 17,4 C 81 % 1022,9 hPa 0,0 l/m 0,0 km/h (0 Bft) SO 135 14,1 C 17,6 C 0,0 km/h (0 Bft)
09.08.2013 00:15 17,4 C 81 % 1022,9 hPa 0,0 l/m 0,0 km/h (0 Bft) SO 135 14,1 C 17,5 C 0,0 km/h (0 Bft)
09.08.2013 00:20 17,1 C 81 % 1022,9 hPa 0,0 l/m 0,0 km/h (0 Bft) S 180 13,8 C 17,4 C 0,0 km/h (0 Bft)
09.08.2013 00:25 16,9 C 81 % 1022,9 hPa 0,0 l/m 0,0 km/h (0 Bft) SO 135 13,6 C 17,1 C 0,0 km/h (0 Bft)
09.08.2013 00:30 16,9 C 82 % 1022,9 hPa 0,0 l/m 0,2 km/h (0 Bft) SO 135 13,8 C 16,9 C 0,0 km/h (0 Bft)
09.08.2013 00:35 16,9 C 82 % 1022,9 hPa 0,0 l/m 0,2 km/h (0 Bft) SO 135 13,8 C 16,9 C 0,0 km/h (0 Bft)
09.08.2013 00:40 17,0 C 82 % 1022,9 hPa 0,0 l/m 0,2 km/h (0 Bft) SO 135 13,9 C 16,9 C 0,0 km/h (0 Bft)
09.08.2013 00:45 17,1 C 82 % 1022,9 hPa 0,0 l/m 0,2 km/h (0 Bft) SO 135 14,0 C 17,0 C 0,0 km/h (0 Bft)
09.08.2013 00:50 17,1 C 82 % 1022,9 hPa 0,0 l/m 0,2 km/h (0 Bft) S-SW 202 14,0 C 17,1 C 2,1 km/h (1 Bft)
09.08.2013 00:55 17,1 C 82 % 1022,9 hPa 0,0 l/m 0,3 km/h (0 Bft) S 180 14,0 C 17,1 C 0,0 km/h (0 Bft)
09.08.2013 01:00 17,2 C 82 % 1022,9 hPa 0,0 l/m 0,3 km/h (0 Bft) W-SW 247 14,1 C 17,1 C 2,6 km/h (1 Bft)
09.08.2013 01:05 17,2 C 83 % 1023,1 hPa 0,0 l/m 0,2 km/h (0 Bft) S-SW 202 14,3 C 17,1 C 0,0 km/h (0 Bft)
09.08.2013 01:10 17,2 C 83 % 1023,1 hPa 0,0 l/m 0,0 km/h (0 Bft) S-SO 157 14,3 C 17,1 C 0,0 km/h (0 Bft)
09.08.2013 01:15 17,2 C 83 % 1023,1 hPa 0,0 l/m 0,0 km/h (0 Bft) S 180 14,3 C 17,1 C 1,6 km/h (1 Bft)
09.08.2013 01:20 17,1 C 83 % 1023,1 hPa 0,0 l/m 0,0 km/h (0 Bft) S-SO 157 14,2 C 17,1 C 0,0 km/h (0 Bft)
09.08.2013 01:25 17,2 C 83 % 1023,2 hPa 0,0 l/m 0,3 km/h (0 Bft) SO 135 14,3 C 17,1 C 0,0 km/h (0 Bft)
09.08.2013 01:30 17,1 C 83 % 1023,2 hPa 0,0 l/m 0,6 km/h (0 Bft) S-SW 202 14,2 C 17,1 C 0,0 km/h (0 Bft)
09.08.2013 01:35 17,1 C 83 % 1023,2 hPa 0,0 l/m 0,5 km/h (0 Bft) S-SW 202 14,2 C 17,1 C 0,0 km/h (0 Bft)
09.08.2013 01:40 17,2 C 83 % 1023,2 hPa 0,0 l/m 0,2 km/h (0 Bft) SO 135 14,3 C 17,1 C 0,0 km/h (0 Bft)
09.08.2013 01:45 17,1 C 83 % 1023,2 hPa 0,0 l/m 0,3 km/h (0 Bft) S 180 14,2 C 17,1 C 0,0 km/h (0 Bft)
09.08.2013 01:50 17,1 C 84 % 1023,2 hPa 0,0 l/m 0,6 km/h (0 Bft) S 180 14,4 C 17,1 C 2,1 km/h (1 Bft)
09.08.2013 01:55 17,1 C 84 % 1023,2 hPa 0,0 l/m 0,5 km/h (0 Bft) S 180 14,4 C 17,1 C 0,0 km/h (0 Bft)
09.08.2013 02:00 17,0 C 83 % 1023,2 hPa 0,0 l/m 0,5 km/h (0 Bft) SO 135 14,1 C 17,0 C 2,6 km/h (1 Bft)
09.08.2013 02:05 17,0 C 84 % 1023,1 hPa 0,0 l/m 0,8 km/h (0 Bft) SO 135 14,3 C 17,0 C 1,8 km/h (1 Bft)
09.08.2013 02:10 16,9 C 84 % 1023,1 hPa 0,0 l/m 0,8 km/h (0 Bft) SO 135 14,2 C 16,9 C 3,2 km/h (1 Bft)
09.08.2013 02:15 16,9 C 84 % 1023,1 hPa 0,0 l/m 0,2 km/h (0 Bft) SO 135 14,2 C 16,9 C 1,6 km/h (1 Bft)
09.08.2013 02:20 16,9 C 84 % 1023,1 hPa 0,0 l/m 0,2 km/h (0 Bft) SO 135 14,2 C 16,9 C 0,0 km/h (0 Bft)
09.08.2013 02:25 16,9 C 85 % 1023,1 hPa 0,0 l/m 0,2 km/h (0 Bft) SO 135 14,4 C 16,8 C 0,0 km/h (0 Bft)
09.08.2013 02:30 16,8 C 85 % 1023,1 hPa 0,0 l/m 0,0 km/h (0 Bft) SO 135 14,3 C 16,8 C 0,0 km/h (0 Bft)
09.08.2013 02:35 16,8 C 85 % 1023,1 hPa 0,0 l/m 0,0 km/h (0 Bft) N-NW 337 14,3 C 16,7 C 0,0 km/h (0 Bft)
09.08.2013 02:40 16,8 C 85 % 1023,1 hPa 0,0 l/m 0,2 km/h (0 Bft) SO 135 14,3 C 16,7 C 1,9 km/h (1 Bft)
09.08.2013 02:45 16,8 C 85 % 1023,0 hPa 0,0 l/m 0,2 km/h (0 Bft) S-SO 157 14,3 C 16,7 C 0,0 km/h (0 Bft)
09.08.2013 02:50 16,8 C 85 % 1023,0 hPa 0,0 l/m 0,3 km/h (0 Bft) S 180 14,3 C 16,8 C 0,0 km/h (0 Bft)
09.08.2013 02:55 16,8 C 85 % 1023,0 hPa 0,0 l/m 0,2 km/h (0 Bft) SO 135 14,3 C 16,8 C 0,0 km/h (0 Bft)
09.08.2013 03:00 16,7 C 86 % 1023,0 hPa 0,0 l/m 0,3 km/h (0 Bft) O-NO 67 14,3 C 16,7 C 1,9 km/h (1 Bft)
09.08.2013 03:05 16,7 C 86 % 1022,8 hPa 0,0 l/m 0,5 km/h (0 Bft) O 90 14,3 C 16,7 C 0,0 km/h (0 Bft)
09.08.2013 03:10 16,7 C 86 % 1022,8 hPa 0,0 l/m 0,3 km/h (0 Bft) O 90 14,3 C 16,7 C 1,9 km/h (1 Bft)
09.08.2013 03:15 16,7 C 86 % 1022,8 hPa 0,0 l/m 0,2 km/h (0 Bft) NO 45 14,3 C 16,7 C 0,0 km/h (0 Bft)
09.08.2013 03:20 16,7 C 86 % 1022,8 hPa 0,0 l/m 0,6 km/h (0 Bft) NO 45 14,3 C 16,7 C 0,0 km/h (0 Bft)
09.08.2013 03:25 16,7 C 86 % 1022,8 hPa 0,0 l/m 0,5 km/h (0 Bft) N 360 14,3 C 16,7 C 0,0 km/h (0 Bft)
09.08.2013 03:30 16,7 C 86 % 1022,8 hPa 0,0 l/m 0,2 km/h (0 Bft) O-NO 67 14,3 C 16,7 C 1,8 km/h (1 Bft)
09.08.2013 03:35 16,7 C 86 % 1022,8 hPa 0,0 l/m 0,5 km/h (0 Bft) O 90 14,3 C 16,7 C 0,0 km/h (0 Bft)
09.08.2013 03:40 16,7 C 86 % 1022,8 hPa 0,0 l/m 0,5 km/h (0 Bft) NO 45 14,3 C 16,6 C 0,0 km/h (0 Bft)
09.08.2013 03:45 16,7 C 86 % 1022,9 hPa 0,0 l/m 0,0 km/h (0 Bft) NO 45 14,3 C 16,6 C 0,0 km/h (0 Bft)
09.08.2013 03:50 16,6 C 86 % 1022,9 hPa 0,0 l/m 0,2 km/h (0 Bft) O 90 14,2 C 16,6 C 0,0 km/h (0 Bft)
09.08.2013 03:55 16,7 C 86 % 1022,9 hPa 0,0 l/m 0,2 km/h (0 Bft) O-NO 67 14,3 C 16,6 C 0,0 km/h (0 Bft)
09.08.2013 04:00 16,6 C 86 % 1022,9 hPa 0,0 l/m 0,0 km/h (0 Bft) NO 45 14,2 C 16,6 C 0,0 km/h (0 Bft)
09.08.2013 04:05 16,6 C 86 % 1023,0 hPa 0,0 l/m 0,0 km/h (0 Bft) S 180 14,2 C 16,6 C 1,6 km/h (1 Bft)
09.08.2013 04:10 16,6 C 86 % 1023,0 hPa 0,0 l/m 0,3 km/h (0 Bft) SO 135 14,2 C 16,6 C 0,0 km/h (0 Bft)
09.08.2013 04:15 16,6 C 86 % 1023,0 hPa 0,0 l/m 0,3 km/h (0 Bft) S-SO 157 14,2 C 16,5 C 0,0 km/h (0 Bft)
09.08.2013 04:20 16,6 C 86 % 1023,0 hPa 0,0 l/m 0,0 km/h (0 Bft) S 180 14,2 C 16,5 C 0,0 km/h (0 Bft)
09.08.2013 04:25 16,5 C 86 % 1022,7 hPa 0,0 l/m 0,0 km/h (0 Bft) SO 135 14,1 C 16,5 C 0,0 km/h (0 Bft)
09.08.2013 04:30 16,5 C 87 % 1022,7 hPa 0,0 l/m 0,0 km/h (0 Bft) SO 135 14,3 C 16,4 C 0,0 km/h (0 Bft)
09.08.2013 04:35 16,5 C 87 % 1022,7 hPa 0,0 l/m 0,0 km/h (0 Bft) SO 135 14,3 C 16,4 C 0,0 km/h (0 Bft)
09.08.2013 04:40 16,5 C 87 % 1022,7 hPa 0,0 l/m 0,2 km/h (0 Bft) N-NO 22 14,3 C 16,4 C 1,6 km/h (1 Bft)
09.08.2013 04:45 16,5 C 87 % 1022,8 hPa 0,0 l/m 0,2 km/h (0 Bft) O 90 14,3 C 16,4 C 0,0 km/h (0 Bft)
09.08.2013 04:50 16,5 C 87 % 1022,8 hPa 0,0 l/m 0,2 km/h (0 Bft) NO 45 14,3 C 16,4 C 0,0 km/h (0 Bft)
09.08.2013 04:55 16,5 C 87 % 1022,8 hPa 0,0 l/m 0,0 km/h (0 Bft) N-NO 22 14,3 C 16,4 C 0,0 km/h (0 Bft)
09.08.2013 05:00 16,5 C 87 % 1022,8 hPa 0,0 l/m 0,2 km/h (0 Bft) O-NO 67 14,3 C 16,3 C 2,4 km/h (1 Bft)
09.08.2013 05:05 16,5 C 87 % 1022,4 hPa 0,0 l/m 1,1 km/h (1 Bft) O-NO 67 14,3 C 16,3 C 3,7 km/h (1 Bft)
09.08.2013 05:10 16,5 C 87 % 1022,4 hPa 0,0 l/m 1,8 km/h (1 Bft) SO 135 14,3 C 16,4 C 0,0 km/h (0 Bft)
09.08.2013 05:15 16,5 C 87 % 1022,4 hPa 0,0 l/m 1,0 km/h (0 Bft) SO 135 14,3 C 16,5 C 0,0 km/h (0 Bft)
09.08.2013 05:20 16,5 C 87 % 1022,4 hPa 0,0 l/m 0,0 km/h (0 Bft) SO 135 14,3 C 16,5 C 0,0 km/h (0 Bft)
09.08.2013 05:25 16,4 C 87 % 1022,4 hPa 0,0 l/m 0,0 km/h (0 Bft) O-SO 112 14,2 C 16,5 C 0,0 km/h (0 Bft)
09.08.2013 05:30 16,4 C 87 % 1022,4 hPa 0,0 l/m 0,0 km/h (0 Bft) S-SW 202 14,2 C 16,4 C 0,0 km/h (0 Bft)
09.08.2013 05:35 16,4 C 87 % 1022,4 hPa 0,0 l/m 0,0 km/h (0 Bft) S-SW 202 14,2 C 16,3 C 0,0 km/h (0 Bft)
09.08.2013 05:40 16,4 C 87 % 1022,4 hPa 0,0 l/m 0,0 km/h (0 Bft) S 180 14,2 C 16,3 C 0,0 km/h (0 Bft)
09.08.2013 05:45 16,4 C 87 % 1022,4 hPa 0,0 l/m 0,0 km/h (0 Bft) S 180 14,2 C 16,3 C 0,0 km/h (0 Bft)
09.08.2013 05:50 16,4 C 87 % 1022,4 hPa 0,0 l/m 0,0 km/h (0 Bft) W-SW 247 14,2 C 16,3 C 0,0 km/h (0 Bft)
09.08.2013 05:55 16,4 C 87 % 1022,4 hPa 0,0 l/m 0,0 km/h (0 Bft) S 180 14,2 C 16,3 C 0,0 km/h (0 Bft)
09.08.2013 06:00 16,3 C 87 % 1022,4 hPa 0,0 l/m 0,0 km/h (0 Bft) SO 135 14,1 C 16,2 C 0,0 km/h (0 Bft)
09.08.2013 06:05 16,3 C 87 % 1022,3 hPa 0,0 l/m 0,0 km/h (0 Bft) SO 135 14,1 C 16,2 C 0,0 km/h (0 Bft)
09.08.2013 06:10 16,3 C 87 % 1022,3 hPa 0,0 l/m 0,0 km/h (0 Bft) SO 135 14,1 C 16,2 C 0,0 km/h (0 Bft)
09.08.2013 06:15 16,3 C 88 % 1022,3 hPa 0,0 l/m 0,0 km/h (0 Bft) SO 135 14,3 C 16,3 C 0,0 km/h (0 Bft)
09.08.2013 06:20 16,4 C 88 % 1022,3 hPa 0,0 l/m 0,0 km/h (0 Bft) SO 135 14,4 C 16,3 C 0,0 km/h (0 Bft)
09.08.2013 06:25 16,4 C 88 % 1022,4 hPa 0,0 l/m 0,0 km/h (0 Bft) O 90 14,4 C 16,3 C 0,0 km/h (0 Bft)
09.08.2013 06:30 16,5 C 88 % 1022,4 hPa 0,0 l/m 0,0 km/h (0 Bft) O-NO 67 14,5 C 16,3 C 0,0 km/h (0 Bft)
09.08.2013 06:35 16,5 C 87 % 1022,4 hPa 0,0 l/m 0,3 km/h (0 Bft) O-NO 67 14,3 C 16,3 C 1,6 km/h (1 Bft)
09.08.2013 06:40 16,5 C 87 % 1022,4 hPa 0,0 l/m 0,3 km/h (0 Bft) NO 45 14,3 C 16,4 C 0,0 km/h (0 Bft)
09.08.2013 06:45 16,5 C 88 % 1022,9 hPa 0,0 l/m 0,3 km/h (0 Bft) O-NO 67 14,5 C 16,4 C 0,0 km/h (0 Bft)
09.08.2013 06:50 16,5 C 88 % 1022,9 hPa 0,0 l/m 0,3 km/h (0 Bft) O 90 14,5 C 16,4 C 0,0 km/h (0 Bft)
09.08.2013 06:55 16,5 C 88 % 1022,9 hPa 0,0 l/m 0,0 km/h (0 Bft) O 90 14,5 C 16,3 C 0,0 km/h (0 Bft)
09.08.2013 07:00 16,5 C 88 % 1022,9 hPa 0,0 l/m 0,6 km/h (0 Bft) S-SO 157 14,5 C 16,3 C 2,6 km/h (1 Bft)
09.08.2013 07:05 16,6 C 88 % 1022,6 hPa 0,0 l/m 1,0 km/h (0 Bft) S 180 14,6 C 16,3 C 0,0 km/h (0 Bft)
09.08.2013 07:10 16,7 C 88 % 1022,6 hPa 0,0 l/m 0,6 km/h (0 Bft) S 180 14,7 C 16,3 C 0,0 km/h (0 Bft)
09.08.2013 07:15 16,7 C 88 % 1022,6 hPa 0,0 l/m 0,0 km/h (0 Bft) S 180 14,7 C 16,3 C 0,0 km/h (0 Bft)
09.08.2013 07:20 16,6 C 88 % 1022,6 hPa 0,0 l/m 0,5 km/h (0 Bft) S-SW 202 14,6 C 16,3 C 0,0 km/h (0 Bft)
09.08.2013 07:25 16,6 C 88 % 1022,5 hPa 0,0 l/m 1,3 km/h (1 Bft) S-SW 202 14,6 C 16,3 C 2,7 km/h (1 Bft)
09.08.2013 07:30 16,5 C 88 % 1022,5 hPa 0,0 l/m 2,1 km/h (1 Bft) W-SW 247 14,5 C 16,2 C 5,0 km/h (1 Bft)
09.08.2013 07:35 16,4 C 88 % 1022,5 hPa 0,0 l/m 2,3 km/h (1 Bft) SW 225 14,4 C 16,1 C 1,9 km/h (1 Bft)
09.08.2013 07:40 16,3 C 88 % 1022,5 hPa 0,0 l/m 1,6 km/h (1 Bft) W 270 14,3 C 16,1 C 2,9 km/h (1 Bft)
09.08.2013 07:45 16,3 C 88 % 1022,4 hPa 0,0 l/m 1,3 km/h (1 Bft) S-SW 202 14,3 C 16,0 C 0,0 km/h (0 Bft)
09.08.2013 07:50 16,2 C 88 % 1022,4 hPa 0,0 l/m 0,5 km/h (0 Bft) O 90 14,2 C 16,0 C 0,0 km/h (0 Bft)
09.08.2013 07:55 16,1 C 89 % 1022,4 hPa 0,0 l/m 0,0 km/h (0 Bft) S 180 14,3 C 16,0 C 0,0 km/h (0 Bft)
09.08.2013 08:00 16,2 C 90 % 1022,4 hPa 0,0 l/m 0,0 km/h (0 Bft) NO 45 14,6 C 16,0 C 0,0 km/h (0 Bft)
09.08.2013 08:05 16,2 C 90 % 1022,6 hPa 0,0 l/m 0,0 km/h (0 Bft) W 270 14,6 C 16,0 C 0,0 km/h (0 Bft)
09.08.2013 08:10 16,2 C 90 % 1022,6 hPa 0,0 l/m 0,2 km/h (0 Bft) W-SW 247 14,6 C 16,0 C 0,0 km/h (0 Bft)
09.08.2013 08:15 16,3 C 90 % 1022,6 hPa 0,0 l/m 0,3 km/h (0 Bft) S-SW 202 14,7 C 16,0 C 1,9 km/h (1 Bft)
09.08.2013 08:20 16,3 C 91 % 1022,6 hPa 0,0 l/m 0,5 km/h (0 Bft) S-SO 157 14,8 C 16,1 C 0,0 km/h (0 Bft)
09.08.2013 08:25 16,2 C 91 % 1022,6 hPa 0,0 l/m 0,5 km/h (0 Bft) SO 135 14,7 C 16,1 C 0,0 km/h (0 Bft)
09.08.2013 08:30 16,3 C 91 % 1022,6 hPa 0,0 l/m 0,8 km/h (0 Bft) SO 135 14,8 C 16,2 C 2,6 km/h (1 Bft)
09.08.2013 08:35 16,5 C 91 % 1022,6 hPa 0,0 l/m 1,4 km/h (1 Bft) S-SW 202 15,0 C 16,3 C 2,7 km/h (1 Bft)
09.08.2013 08:40 16,5 C 91 % 1022,6 hPa 0,0 l/m 1,4 km/h (1 Bft) S-SW 202 15,0 C 16,6 C 1,9 km/h (1 Bft)
09.08.2013 08:45 16,5 C 91 % 1022,5 hPa 0,0 l/m 1,8 km/h (1 Bft) S 180 15,0 C 16,7 C 3,9 km/h (1 Bft)
09.08.2013 08:50 16,6 C 91 % 1022,5 hPa 0,0 l/m 2,6 km/h (1 Bft) S 180 15,1 C 16,8 C 3,1 km/h (1 Bft)
09.08.2013 08:55 16,5 C 91 % 1022,5 hPa 0,0 l/m 2,6 km/h (1 Bft) S-SO 157 15,0 C 16,8 C 3,4 km/h (1 Bft)
09.08.2013 09:00 16,4 C 91 % 1022,5 hPa 0,0 l/m 1,1 km/h (1 Bft) O-SO 112 14,9 C 16,7 C 0,0 km/h (0 Bft)
09.08.2013 09:05 16,2 C 91 % 1022,6 hPa 0,0 l/m 0,5 km/h (0 Bft) O-NO 67 14,7 C 16,7 C 0,0 km/h (0 Bft)
09.08.2013 09:10 16,1 C 91 % 1022,6 hPa 0,0 l/m 0,2 km/h (0 Bft) O 90 14,6 C 16,6 C 0,0 km/h (0 Bft)
09.08.2013 09:15 16,2 C 91 % 1022,6 hPa 0,0 l/m 0,2 km/h (0 Bft) N 360 14,7 C 16,6 C 0,0 km/h (0 Bft)
09.08.2013 09:20 16,3 C 91 % 1022,6 hPa 0,0 l/m 0,2 km/h (0 Bft) S 180 14,8 C 16,6 C 1,6 km/h (1 Bft)
09.08.2013 09:25 16,4 C 91 % 1022,6 hPa 0,0 l/m 0,6 km/h (0 Bft) S-SW 202 14,9 C 16,6 C 3,2 km/h (1 Bft)
09.08.2013 09:30 16,5 C 91 % 1022,6 hPa 0,0 l/m 1,1 km/h (1 Bft) W-SW 247 15,0 C 16,6 C 2,3 km/h (1 Bft)
09.08.2013 09:35 16,6 C 91 % 1022,6 hPa 0,0 l/m 1,4 km/h (1 Bft) S-SW 202 15,1 C 16,7 C 2,4 km/h (1 Bft)
09.08.2013 09:40 16,7 C 91 % 1022,6 hPa 0,0 l/m 1,9 km/h (1 Bft) W-SW 247 15,2 C 16,9 C 5,1 km/h (1 Bft)
09.08.2013 09:45 16,8 C 91 % 1022,3 hPa 0,0 l/m 2,3 km/h (1 Bft) S-SW 202 15,3 C 17,0 C 1,8 km/h (1 Bft)
09.08.2013 09:50 16,8 C 91 % 1022,3 hPa 0,0 l/m 2,7 km/h (1 Bft) S 180 15,3 C 17,1 C 5,6 km/h (1 Bft)
09.08.2013 09:55 16,8 C 91 % 1022,3 hPa 0,0 l/m 2,7 km/h (1 Bft) N-NO 22 15,3 C 17,1 C 2,4 km/h (1 Bft)
09.08.2013 10:00 16,9 C 91 % 1022,3 hPa 0,0 l/m 1,9 km/h (1 Bft) S 180 15,4 C 17,1 C 1,6 km/h (1 Bft)
09.08.2013 10:05 17,0 C 91 % 1022,7 hPa 0,0 l/m 1,9 km/h (1 Bft) S 180 15,5 C 17,3 C 1,8 km/h (1 Bft)
09.08.2013 10:10 16,9 C 91 % 1022,7 hPa 0,0 l/m 1,6 km/h (1 Bft) S-SW 202 15,4 C 17,3 C 2,7 km/h (1 Bft)
09.08.2013 10:15 16,9 C 91 % 1022,7 hPa 0,0 l/m 1,1 km/h (1 Bft) S 180 15,4 C 17,2 C 0,0 km/h (0 Bft)
09.08.2013 10:20 16,8 C 90 % 1022,7 hPa 0,0 l/m 1,0 km/h (0 Bft) S-SW 202 15,1 C 17,2 C 2,6 km/h (1 Bft)
09.08.2013 10:25 16,9 C 90 % 1022,6 hPa 0,0 l/m 1,3 km/h (1 Bft) W-SW 247 15,2 C 17,3 C 2,3 km/h (1 Bft)
09.08.2013 10:30 17,0 C 90 % 1022,6 hPa 0,0 l/m 1,9 km/h (1 Bft) W-SW 247 15,3 C 17,4 C 3,1 km/h (1 Bft)
09.08.2013 10:35 17,0 C 90 % 1022,6 hPa 0,0 l/m 2,3 km/h (1 Bft) S 180 15,3 C 17,5 C 4,2 km/h (1 Bft)
09.08.2013 10:40 17,0 C 90 % 1022,6 hPa 0,0 l/m 3,7 km/h (1 Bft) S-SO 157 15,3 C 17,5 C 6,8 km/h (2 Bft)
09.08.2013 10:45 17,0 C 90 % 1022,4 hPa 0,0 l/m 3,9 km/h (1 Bft) S 180 15,3 C 17,4 C 6,0 km/h (2 Bft)
09.08.2013 10:50 17,0 C 89 % 1022,4 hPa 0,0 l/m 3,9 km/h (1 Bft) S 180 15,2 C 17,4 C 7,9 km/h (2 Bft)
09.08.2013 10:55 16,9 C 90 % 1022,4 hPa 0,0 l/m 3,7 km/h (1 Bft) S 180 15,2 C 17,3 C 2,3 km/h (1 Bft)
09.08.2013 11:00 16,9 C 90 % 1022,4 hPa 0,0 l/m 2,9 km/h (1 Bft) SO 135 15,2 C 17,2 C 4,3 km/h (1 Bft)
09.08.2013 11:05 16,8 C 90 % 1022,9 hPa 0,0 l/m 2,4 km/h (1 Bft) S-SO 157 15,1 C 17,1 C 4,2 km/h (1 Bft)
09.08.2013 11:10 16,8 C 90 % 1022,9 hPa 0,0 l/m 2,7 km/h (1 Bft) S 180 15,1 C 17,0 C 3,1 km/h (1 Bft)
09.08.2013 11:15 16,8 C 90 % 1022,9 hPa 0,0 l/m 3,2 km/h (1 Bft) S 180 15,1 C 17,0 C 4,2 km/h (1 Bft)
09.08.2013 11:20 17,0 C 90 % 1022,9 hPa 0,0 l/m 3,5 km/h (1 Bft) S 180 15,3 C 17,1 C 7,7 km/h (2 Bft)
09.08.2013 11:25 17,1 C 90 % 1022,7 hPa 0,0 l/m 2,9 km/h (1 Bft) S-SW 202 15,4 C 17,4 C 4,3 km/h (1 Bft)
09.08.2013 11:30 17,2 C 89 % 1022,7 hPa 0,0 l/m 2,7 km/h (1 Bft) S-SO 157 15,4 C 17,6 C 1,6 km/h (1 Bft)
09.08.2013 11:35 17,2 C 89 % 1022,7 hPa 0,0 l/m 3,2 km/h (1 Bft) S-SO 157 15,4 C 17,7 C 7,2 km/h (2 Bft)
09.08.2013 11:40 17,0 C 89 % 1022,7 hPa 0,0 l/m 4,0 km/h (1 Bft) S-SW 202 15,2 C 17,5 C 2,4 km/h (1 Bft)
09.08.2013 11:45 17,0 C 89 % 1022,8 hPa 0,0 l/m 4,0 km/h (1 Bft) N-NO 22 15,2 C 17,4 C 1,9 km/h (1 Bft)
09.08.2013 11:50 17,1 C 89 % 1022,8 hPa 0,0 l/m 2,9 km/h (1 Bft) S-SW 202 15,3 C 17,3 C 1,9 km/h (1 Bft)
09.08.2013 11:55 17,0 C 89 % 1022,8 hPa 0,0 l/m 2,7 km/h (1 Bft) S 180 15,2 C 17,3 C 5,3 km/h (1 Bft)
09.08.2013 12:00 17,0 C 89 % 1022,8 hPa 0,0 l/m 3,1 km/h (1 Bft) W-SW 247 15,2 C 17,3 C 6,8 km/h (2 Bft)
09.08.2013 12:05 16,8 C 89 % 1022,6 hPa 0,0 l/m 3,5 km/h (1 Bft) W-SW 247 15,0 C 17,1 C 3,2 km/h (1 Bft)
09.08.2013 12:10 16,8 C 89 % 1022,6 hPa 0,0 l/m 4,5 km/h (1 Bft) W-SW 247 15,0 C 16,9 C 4,7 km/h (1 Bft)
09.08.2013 12:15 16,9 C 89 % 1022,6 hPa 0,0 l/m 3,9 km/h (1 Bft) S-SW 202 15,1 C 16,8 C 3,9 km/h (1 Bft)
09.08.2013 12:20 16,6 C 89 % 1022,6 hPa 0,0 l/m 2,7 km/h (1 Bft) S 180 14,8 C 16,5 C 4,7 km/h (1 Bft)
09.08.2013 12:25 16,4 C 89 % 1022,6 hPa 0,7 l/m 3,2 km/h (1 Bft) S 180 14,6 C 16,3 C 3,1 km/h (1 Bft)
09.08.2013 12:30 16,3 C 90 % 1022,6 hPa 0,0 l/m 3,9 km/h (1 Bft) S-SO 157 14,7 C 16,1 C 1,6 km/h (1 Bft)
09.08.2013 12:35 16,4 C 90 % 1022,6 hPa 0,7 l/m 3,5 km/h (1 Bft) SO 135 14,8 C 16,1 C 7,9 km/h (2 Bft)
09.08.2013 12:40 16,6 C 90 % 1022,6 hPa 0,0 l/m 3,4 km/h (1 Bft) SW 225 15,0 C 16,1 C 5,0 km/h (1 Bft)
09.08.2013 12:45 16,8 C 90 % 1022,6 hPa 0,7 l/m 4,2 km/h (1 Bft) S-SW 202 15,1 C 16,3 C 4,5 km/h (1 Bft)
09.08.2013 12:50 16,6 C 90 % 1022,6 hPa 0,0 l/m 5,0 km/h (1 Bft) S 180 15,0 C 16,3 C 9,5 km/h (2 Bft)
09.08.2013 12:55 16,3 C 90 % 1022,6 hPa 0,0 l/m 5,6 km/h (1 Bft) SW 225 14,7 C 16,1 C 8,7 km/h (2 Bft)
09.08.2013 13:00 16,4 C 90 % 1022,6 hPa 0,0 l/m 6,0 km/h (2 Bft) W-SW 247 14,8 C 16,1 C 10,9 km/h (2 Bft)
09.08.2013 13:05 16,1 C 89 % 1022,8 hPa 0,7 l/m 5,5 km/h (1 Bft) W-SW 247 14,3 C 16,1 C 9,7 km/h (2 Bft)
09.08.2013 13:10 15,8 C 90 % 1022,8 hPa 0,0 l/m 4,7 km/h (1 Bft) S-SW 202 14,2 C 15,7 C 8,9 km/h (2 Bft)
09.08.2013 13:15 15,6 C 90 % 1022,8 hPa 0,0 l/m 4,8 km/h (1 Bft) W-SW 247 14,0 C 15,6 C 5,3 km/h (1 Bft)
09.08.2013 13:20 15,5 C 91 % 1022,8 hPa 0,0 l/m 4,8 km/h (1 Bft) S-SW 202 14,0 C 15,4 C 7,4 km/h (2 Bft)
09.08.2013 13:25 15,4 C 91 % 1022,6 hPa 0,0 l/m 4,5 km/h (1 Bft) S-SW 202 13,9 C 15,4 C 8,7 km/h (2 Bft)
09.08.2013 13:30 15,4 C 91 % 1022,6 hPa 0,0 l/m 3,9 km/h (1 Bft) S-SW 202 13,9 C 15,4 C 3,7 km/h (1 Bft)
09.08.2013 13:35 15,4 C 91 % 1022,6 hPa 0,0 l/m 3,7 km/h (1 Bft) S 180 13,9 C 15,4 C 3,4 km/h (1 Bft)
09.08.2013 13:40 15,3 C 91 % 1022,6 hPa 0,0 l/m 4,2 km/h (1 Bft) S 180 13,8 C 15,4 C 3,9 km/h (1 Bft)
09.08.2013 13:45 15,2 C 91 % 1022,8 hPa 0,0 l/m 4,2 km/h (1 Bft) S-SW 202 13,7 C 15,2 C 9,3 km/h (2 Bft)
09.08.2013 13:50 15,0 C 91 % 1022,8 hPa 0,0 l/m 5,1 km/h (1 Bft) S 180 13,5 C 15,1 C 3,9 km/h (1 Bft)
09.08.2013 13:55 15,1 C 91 % 1022,8 hPa 0,0 l/m 6,1 km/h (2 Bft) SO 135 13,6 C 15,1 C 8,5 km/h (2 Bft)
09.08.2013 14:00 14,9 C 91 % 1022,8 hPa 0,0 l/m 4,8 km/h (1 Bft) W-SW 247 13,4 C 15,0 C 1,8 km/h (1 Bft)
09.08.2013 14:05 15,0 C 91 % 1022,9 hPa 0,0 l/m 4,5 km/h (1 Bft) W-SW 247 13,5 C 15,0 C 5,0 km/h (1 Bft)
09.08.2013 14:10 14,8 C 92 % 1022,9 hPa 0,0 l/m 3,5 km/h (1 Bft) SW 225 13,5 C 14,8 C 8,2 km/h (2 Bft)
09.08.2013 14:13 14,6 C 92 % 1022,9 hPa 0,7 l/m 4,2 km/h (1 Bft) W-SW 247 13,3 C 14,6 C 5,1 km/h (1 Bft)
09.08.2013 14:15 14,6 C 92 % 1022,9 hPa 0,0 l/m 4,2 km/h (1 Bft) W-SW 247 13,3 C 14,6 C 5,1 km/h (1 Bft)
09.08.2013 14:20 14,5 C 92 % 1022,9 hPa 0,0 l/m 6,1 km/h (2 Bft) S-SO 157 13,2 C 14,4 C 11,7 km/h (2 Bft)
09.08.2013 14:25 14,4 C 92 % 1023,2 hPa 1,4 l/m 6,4 km/h (2 Bft) S 180 13,1 C 14,3 C 7,9 km/h (2 Bft)
09.08.2013 14:30 14,1 C 92 % 1023,2 hPa 1,4 l/m 6,6 km/h (2 Bft) S-SO 157 12,8 C 14,1 C 12,2 km/h (2 Bft)
09.08.2013 14:35 14,0 C 92 % 1023,2 hPa 0,7 l/m 5,0 km/h (1 Bft) S-SW 202 12,7 C 14,0 C 3,1 km/h (1 Bft)
09.08.2013 14:40 14,1 C 93 % 1023,2 hPa 0,7 l/m 2,9 km/h (1 Bft) S-SO 157 13,0 C 14,0 C 1,6 km/h (1 Bft)
09.08.2013 14:45 14,0 C 93 % 1023,3 hPa 0,7 l/m 2,6 km/h (1 Bft) SO 135 12,9 C 14,0 C 4,0 km/h (1 Bft)
09.08.2013 14:50 14,1 C 93 % 1023,3 hPa 0,7 l/m 2,1 km/h (1 Bft) S 180 13,0 C 14,1 C 2,4 km/h (1 Bft)
09.08.2013 14:55 14,1 C 93 % 1023,3 hPa 0,0 l/m 1,8 km/h (1 Bft) W-SW 247 13,0 C 14,1 C 2,6 km/h (1 Bft)
09.08.2013 15:00 14,1 C 93 % 1023,3 hPa 0,7 l/m 2,9 km/h (1 Bft) S-SW 202 13,0 C 14,1 C 4,2 km/h (1 Bft)
09.08.2013 15:05 14,1 C 93 % 1023,1 hPa 0,7 l/m 5,3 km/h (1 Bft) S 180 13,0 C 14,1 C 5,8 km/h (2 Bft)
09.08.2013 15:10 14,0 C 93 % 1023,1 hPa 0,0 l/m 5,5 km/h (1 Bft) S 180 12,9 C 14,1 C 7,2 km/h (2 Bft)
09.08.2013 15:15 14,0 C 93 % 1023,1 hPa 0,0 l/m 4,7 km/h (1 Bft) S 180 12,9 C 14,0 C 8,0 km/h (2 Bft)
09.08.2013 15:20 14,0 C 93 % 1023,4 hPa 0,7 l/m 3,7 km/h (1 Bft) S 180 12,9 C 14,0 C 0,0 km/h (0 Bft)
09.08.2013 15:25 14,1 C 93 % 1023,4 hPa 0,7 l/m 2,1 km/h (1 Bft) S 180 13,0 C 14,0 C 0,0 km/h (0 Bft)
09.08.2013 15:30 14,2 C 94 % 1023,4 hPa 0,0 l/m 1,4 km/h (1 Bft) S 180 13,2 C 14,1 C 3,4 km/h (1 Bft)
09.08.2013 15:35 14,1 C 94 % 1023,4 hPa 0,0 l/m 2,1 km/h (1 Bft) SO 135 13,1 C 14,1 C 2,6 km/h (1 Bft)
09.08.2013 15:40 14,1 C 94 % 1023,5 hPa 0,0 l/m 2,4 km/h (1 Bft) S 180 13,1 C 14,1 C 2,3 km/h (1 Bft)
09.08.2013 15:45 14,1 C 94 % 1023,5 hPa 0,0 l/m 2,3 km/h (1 Bft) S-SW 202 13,1 C 14,0 C 2,6 km/h (1 Bft)
09.08.2013 15:50 14,1 C 94 % 1023,5 hPa 0,7 l/m 2,3 km/h (1 Bft) S-SO 157 13,1 C 14,0 C 1,9 km/h (1 Bft)
09.08.2013 15:55 14,0 C 94 % 1023,5 hPa 0,0 l/m 3,1 km/h (1 Bft) S 180 13,0 C 14,0 C 8,0 km/h (2 Bft)
09.08.2013 16:00 14,0 C 94 % 1023,3 hPa 0,7 l/m 3,5 km/h (1 Bft) S 180 13,0 C 14,0 C 6,0 km/h (2 Bft)
09.08.2013 16:05 13,9 C 94 % 1023,3 hPa 0,0 l/m 4,5 km/h (1 Bft) SW 225 12,9 C 14,0 C 4,8 km/h (1 Bft)
09.08.2013 16:10 13,8 C 94 % 1023,3 hPa 0,0 l/m 4,3 km/h (1 Bft) W 270 12,9 C 13,9 C 13,0 km/h (3 Bft)
09.08.2013 16:15 13,8 C 94 % 1023,3 hPa 0,0 l/m 2,9 km/h (1 Bft) S-SW 202 12,9 C 13,9 C 3,4 km/h (1 Bft)
09.08.2013 16:20 13,9 C 94 % 1023,3 hPa 0,0 l/m 2,3 km/h (1 Bft) W-SW 247 12,9 C 13,9 C 2,6 km/h (1 Bft)
09.08.2013 16:25 13,8 C 94 % 1023,3 hPa 0,0 l/m 2,6 km/h (1 Bft) S 180 12,9 C 13,9 C 5,5 km/h (1 Bft)
09.08.2013 16:30 13,9 C 94 % 1023,3 hPa 0,7 l/m 2,9 km/h (1 Bft) S-SW 202 12,9 C 13,8 C 2,1 km/h (1 Bft)
09.08.2013 16:35 13,9 C 94 % 1023,3 hPa 0,0 l/m 3,1 km/h (1 Bft) S-SW 202 12,9 C 13,9 C 4,7 km/h (1 Bft)
09.08.2013 16:40 13,9 C 94 % 1023,4 hPa 0,0 l/m 3,1 km/h (1 Bft) S 180 12,9 C 13,8 C 3,5 km/h (1 Bft)
09.08.2013 16:45 13,9 C 94 % 1023,4 hPa 0,0 l/m 2,6 km/h (1 Bft) S 180 12,9 C 13,9 C 2,3 km/h (1 Bft)
09.08.2013 16:50 13,9 C 94 % 1023,4 hPa 0,0 l/m 3,1 km/h (1 Bft) S-SO 157 12,9 C 13,9 C 5,8 km/h (2 Bft)
09.08.2013 16:55 13,8 C 94 % 1023,4 hPa 0,7 l/m 4,2 km/h (1 Bft) S 180 12,9 C 13,9 C 5,5 km/h (1 Bft)
09.08.2013 17:00 13,7 C 94 % 1023,7 hPa 0,0 l/m 4,8 km/h (1 Bft) S-SW 202 12,8 C 13,8 C 4,3 km/h (1 Bft)
09.08.2013 17:05 13,6 C 94 % 1023,7 hPa 0,0 l/m 5,1 km/h (1 Bft) S 180 12,7 C 13,6 C 7,4 km/h (2 Bft)
09.08.2013 17:10 13,5 C 94 % 1023,7 hPa 0,0 l/m 4,7 km/h (1 Bft) S 180 12,6 C 13,5 C 1,8 km/h (1 Bft)
09.08.2013 17:15 13,4 C 94 % 1023,7 hPa 0,7 l/m 4,0 km/h (1 Bft) S 180 12,5 C 13,4 C 3,9 km/h (1 Bft)
09.08.2013 17:20 13,3 C 94 % 1023,9 hPa 0,0 l/m 3,5 km/h (1 Bft) S-SW 202 12,4 C 13,3 C 6,4 km/h (2 Bft)
09.08.2013 17:25 13,2 C 94 % 1023,9 hPa 0,7 l/m 4,0 km/h (1 Bft) S 180 12,3 C 13,2 C 7,4 km/h (2 Bft)
09.08.2013 17:30 13,2 C 94 % 1023,9 hPa 0,0 l/m 4,7 km/h (1 Bft) W-SW 247 12,3 C 13,2 C 6,8 km/h (2 Bft)
09.08.2013 17:35 13,1 C 94 % 1023,9 hPa 0,0 l/m 5,5 km/h (1 Bft) S 180 12,2 C 13,0 C 5,6 km/h (1 Bft)
09.08.2013 17:40 13,1 C 94 % 1024,1 hPa 0,7 l/m 4,3 km/h (1 Bft) S-SW 202 12,2 C 13,1 C 2,4 km/h (1 Bft)
09.08.2013 17:45 13,2 C 94 % 1024,1 hPa 0,7 l/m 2,3 km/h (1 Bft) S-SW 202 12,3 C 13,2 C 4,8 km/h (1 Bft)
09.08.2013 17:50 13,1 C 94 % 1024,1 hPa 0,7 l/m 1,9 km/h (1 Bft) S-SO 157 12,2 C 13,2 C 2,7 km/h (1 Bft)
09.08.2013 17:55 13,1 C 94 % 1024,1 hPa 0,7 l/m 2,7 km/h (1 Bft) S 180 12,2 C 13,1 C 5,0 km/h (1 Bft)
09.08.2013 18:00 13,0 C 94 % 1024,3 hPa 0,7 l/m 2,1 km/h (1 Bft) S 180 12,1 C 13,0 C 1,8 km/h (1 Bft)
09.08.2013 18:05 12,9 C 95 % 1024,3 hPa 0,7 l/m 1,9 km/h (1 Bft) S 180 12,1 C 13,0 C 3,7 km/h (1 Bft)
09.08.2013 18:10 12,9 C 95 % 1024,3 hPa 0,7 l/m 1,8 km/h (1 Bft) S-SW 202 12,1 C 13,0 C 0,0 km/h (0 Bft)
09.08.2013 18:15 12,8 C 95 % 1024,3 hPa 0,7 l/m 0,5 km/h (0 Bft) NW 315 12,0 C 13,0 C 3,5 km/h (1 Bft)
09.08.2013 18:20 12,8 C 95 % 1024,2 hPa 0,7 l/m 1,0 km/h (0 Bft) SO 135 12,0 C 13,0 C 3,7 km/h (1 Bft)
09.08.2013 18:25 12,7 C 95 % 1024,2 hPa 0,7 l/m 2,6 km/h (1 Bft) SO 135 11,9 C 12,8 C 0,0 km/h (0 Bft)
09.08.2013 18:30 12,7 C 95 % 1024,2 hPa 0,0 l/m 2,4 km/h (1 Bft) S 180 11,9 C 12,8 C 1,8 km/h (1 Bft)
09.08.2013 18:35 12,7 C 95 % 1024,2 hPa 0,7 l/m 1,8 km/h (1 Bft) S-SO 157 11,9 C 12,8 C 6,1 km/h (2 Bft)
09.08.2013 18:40 12,7 C 95 % 1024,2 hPa 0,7 l/m 1,8 km/h (1 Bft) O-SO 112 11,9 C 12,8 C 0,0 km/h (0 Bft)
09.08.2013 18:45 12,7 C 95 % 1024,2 hPa 0,0 l/m 1,6 km/h (1 Bft) O-SO 112 11,9 C 12,8 C 1,9 km/h (1 Bft)
09.08.2013 18:50 12,7 C 95 % 1024,2 hPa 0,7 l/m 1,1 km/h (1 Bft) SO 135 11,9 C 12,8 C 0,0 km/h (0 Bft)
09.08.2013 18:55 12,7 C 95 % 1024,2 hPa 0,0 l/m 1,4 km/h (1 Bft) SO 135 11,9 C 12,8 C 4,7 km/h (1 Bft)
09.08.2013 19:00 12,7 C 95 % 1024,4 hPa 0,7 l/m 1,6 km/h (1 Bft) O-SO 112 11,9 C 12,8 C 0,0 km/h (0 Bft)
09.08.2013 19:05 12,7 C 95 % 1024,4 hPa 0,0 l/m 3,1 km/h (1 Bft) S 180 11,9 C 12,8 C 6,4 km/h (2 Bft)
09.08.2013 19:10 12,6 C 95 % 1024,4 hPa 0,7 l/m 3,7 km/h (1 Bft) W-SW 247 11,8 C 12,7 C 4,2 km/h (1 Bft)
09.08.2013 19:15 12,4 C 95 % 1024,4 hPa 0,0 l/m 4,7 km/h (1 Bft) SW 225 11,6 C 12,5 C 6,9 km/h (2 Bft)
09.08.2013 19:20 12,4 C 95 % 1024,5 hPa 0,0 l/m 4,5 km/h (1 Bft) SO 135 11,6 C 12,4 C 2,6 km/h (1 Bft)
09.08.2013 19:25 12,4 C 95 % 1024,5 hPa 0,7 l/m 2,4 km/h (1 Bft) O-SO 112 11,6 C 12,4 C 0,0 km/h (0 Bft)
09.08.2013 19:30 12,4 C 95 % 1024,5 hPa 0,0 l/m 0,8 km/h (0 Bft) O 90 11,6 C 12,4 C 0,0 km/h (0 Bft)
09.08.2013 19:35 12,4 C 95 % 1024,5 hPa 0,0 l/m 0,5 km/h (0 Bft) O-SO 112 11,6 C 12,4 C 0,0 km/h (0 Bft)
09.08.2013 19:40 12,4 C 95 % 1024,6 hPa 0,7 l/m 0,5 km/h (0 Bft) S 180 11,6 C 12,5 C 0,0 km/h (0 Bft)
09.08.2013 19:45 12,4 C 95 % 1024,6 hPa 0,0 l/m 0,5 km/h (0 Bft) O 90 11,6 C 12,5 C 0,0 km/h (0 Bft)
09.08.2013 19:50 12,4 C 95 % 1024,6 hPa 0,0 l/m 0,6 km/h (0 Bft) S-SW 202 11,6 C 12,5 C 0,0 km/h (0 Bft)
09.08.2013 19:55 12,4 C 95 % 1024,6 hPa 0,7 l/m 0,6 km/h (0 Bft) S-SW 202 11,6 C 12,5 C 1,9 km/h (1 Bft)
09.08.2013 20:00 12,4 C 95 % 1024,7 hPa 0,0 l/m 1,3 km/h (1 Bft) SO 135 11,6 C 12,4 C 3,2 km/h (1 Bft)
09.08.2013 20:05 12,3 C 95 % 1024,7 hPa 0,7 l/m 1,1 km/h (1 Bft) O-NO 67 11,5 C 12,4 C 2,3 km/h (1 Bft)
09.08.2013 20:10 12,3 C 95 % 1024,7 hPa 0,0 l/m 0,5 km/h (0 Bft) O-SO 112 11,5 C 12,4 C 0,0 km/h (0 Bft)
09.08.2013 20:15 12,3 C 95 % 1024,7 hPa 0,0 l/m 0,5 km/h (0 Bft) S-SO 157 11,5 C 12,3 C 0,0 km/h (0 Bft)
09.08.2013 20:20 12,3 C 95 % 1024,6 hPa 0,7 l/m 1,0 km/h (0 Bft) S-SO 157 11,5 C 12,3 C 2,7 km/h (1 Bft)
09.08.2013 20:25 12,2 C 95 % 1024,6 hPa 0,0 l/m 1,6 km/h (1 Bft) O 90 11,4 C 12,3 C 0,0 km/h (0 Bft)
09.08.2013 20:30 12,2 C 95 % 1024,6 hPa 0,0 l/m 1,9 km/h (1 Bft) S 180 11,4 C 12,3 C 4,3 km/h (1 Bft)
09.08.2013 20:35 12,2 C 95 % 1024,6 hPa 0,0 l/m 1,3 km/h (1 Bft) W-NW 292 11,4 C 12,2 C 0,0 km/h (0 Bft)
09.08.2013 20:40 12,1 C 95 % 1024,4 hPa 0,0 l/m 0,8 km/h (0 Bft) S 180 11,3 C 12,2 C 0,0 km/h (0 Bft)
09.08.2013 20:45 12,1 C 95 % 1024,4 hPa 0,0 l/m 1,3 km/h (1 Bft) W-SW 247 11,3 C 12,1 C 1,9 km/h (1 Bft)
09.08.2013 20:50 12,0 C 95 % 1024,4 hPa 0,0 l/m 1,1 km/h (1 Bft) S-SO 157 11,2 C 12,0 C 1,8 km/h (1 Bft)
09.08.2013 20:55 12,0 C 95 % 1024,4 hPa 0,0 l/m 0,3 km/h (0 Bft) O-SO 112 11,2 C 12,0 C 0,0 km/h (0 Bft)
09.08.2013 21:00 12,1 C 95 % 1024,7 hPa 0,0 l/m 0,2 km/h (0 Bft) S 180 11,3 C 12,0 C 0,0 km/h (0 Bft)
09.08.2013 21:05 12,1 C 95 % 1024,7 hPa 0,0 l/m 0,3 km/h (0 Bft) S 180 11,3 C 12,0 C 0,0 km/h (0 Bft)
09.08.2013 21:10 12,1 C 95 % 1024,7 hPa 0,0 l/m 0,8 km/h (0 Bft) S-SO 157 11,3 C 12,1 C 0,0 km/h (0 Bft)
09.08.2013 21:15 12,2 C 95 % 1024,7 hPa 0,0 l/m 0,5 km/h (0 Bft) S 180 11,4 C 12,1 C 0,0 km/h (0 Bft)
09.08.2013 21:20 12,2 C 95 % 1024,6 hPa 0,0 l/m 0,2 km/h (0 Bft) NO 45 11,4 C 12,1 C 2,1 km/h (1 Bft)
09.08.2013 21:25 12,1 C 95 % 1024,6 hPa 0,0 l/m 0,2 km/h (0 Bft) S-SW 202 11,3 C 12,1 C 0,0 km/h (0 Bft)
09.08.2013 21:30 12,1 C 95 % 1024,6 hPa 0,0 l/m 0,3 km/h (0 Bft) W-SW 247 11,3 C 12,1 C 2,6 km/h (1 Bft)
09.08.2013 21:35 12,1 C 95 % 1024,6 hPa 0,0 l/m 0,3 km/h (0 Bft) SO 135 11,3 C 12,0 C 0,0 km/h (0 Bft)
09.08.2013 21:40 12,0 C 95 % 1024,8 hPa 0,0 l/m 0,2 km/h (0 Bft) W 270 11,2 C 12,0 C 0,0 km/h (0 Bft)
09.08.2013 21:45 12,0 C 95 % 1024,8 hPa 0,0 l/m 0,5 km/h (0 Bft) O-NO 67 11,2 C 12,0 C 2,3 km/h (1 Bft)
09.08.2013 21:50 11,9 C 96 % 1024,8 hPa 0,0 l/m 1,3 km/h (1 Bft) NO 45 11,3 C 11,9 C 1,8 km/h (1 Bft)
09.08.2013 21:55 11,8 C 96 % 1024,8 hPa 0,0 l/m 0,8 km/h (0 Bft) SO 135 11,2 C 11,8 C 0,0 km/h (0 Bft)
09.08.2013 22:00 11,8 C 96 % 1024,8 hPa 0,0 l/m 0,3 km/h (0 Bft) O-NO 67 11,2 C 11,8 C 1,6 km/h (1 Bft)
09.08.2013 22:05 11,8 C 96 % 1024,8 hPa 0,0 l/m 0,6 km/h (0 Bft) NO 45 11,2 C 11,8 C 2,6 km/h (1 Bft)
09.08.2013 22:10 11,8 C 96 % 1024,8 hPa 0,0 l/m 1,1 km/h (1 Bft) O-NO 67 11,2 C 11,8 C 1,9 km/h (1 Bft)
09.08.2013 22:15 11,8 C 96 % 1024,8 hPa 0,0 l/m 1,8 km/h (1 Bft) O-SO 112 11,2 C 11,8 C 1,8 km/h (1 Bft)
09.08.2013 22:20 11,8 C 96 % 1025,1 hPa 0,0 l/m 1,9 km/h (1 Bft) O 90 11,2 C 11,8 C 2,6 km/h (1 Bft)
09.08.2013 22:25 11,7 C 96 % 1025,1 hPa 0,0 l/m 1,8 km/h (1 Bft) N-NO 22 11,1 C 11,7 C 0,0 km/h (0 Bft)
09.08.2013 22:30 11,7 C 96 % 1025,1 hPa 0,0 l/m 1,3 km/h (1 Bft) SW 225 11,1 C 11,7 C 0,0 km/h (0 Bft)
09.08.2013 22:35 11,7 C 96 % 1025,1 hPa 0,0 l/m 0,2 km/h (0 Bft) SO 135 11,1 C 11,7 C 0,0 km/h (0 Bft)
09.08.2013 22:40 11,7 C 96 % 1024,9 hPa 0,0 l/m 0,0 km/h (0 Bft) SO 135 11,1 C 11,6 C 0,0 km/h (0 Bft)
09.08.2013 22:45 11,7 C 96 % 1024,9 hPa 0,0 l/m 0,0 km/h (0 Bft) S-SW 202 11,1 C 11,6 C 0,0 km/h (0 Bft)
09.08.2013 22:50 11,6 C 96 % 1024,9 hPa 0,0 l/m 0,0 km/h (0 Bft) SW 225 11,0 C 11,6 C 0,0 km/h (0 Bft)
09.08.2013 22:55 11,5 C 96 % 1024,9 hPa 0,0 l/m 0,0 km/h (0 Bft) W-NW 292 10,9 C 11,4 C 0,0 km/h (0 Bft)
09.08.2013 23:00 11,5 C 96 % 1024,9 hPa 0,0 l/m 0,0 km/h (0 Bft) W-NW 292 10,9 C 11,3 C 0,0 km/h (0 Bft)
09.08.2013 23:05 11,4 C 96 % 1024,9 hPa 0,0 l/m 0,0 km/h (0 Bft) W-NW 292 10,8 C 11,3 C 0,0 km/h (0 Bft)
09.08.2013 23:10 11,4 C 96 % 1024,9 hPa 0,0 l/m 0,0 km/h (0 Bft) N-NW 337 10,8 C 11,2 C 0,0 km/h (0 Bft)
09.08.2013 23:15 11,4 C 96 % 1024,9 hPa 0,0 l/m 0,0 km/h (0 Bft) N-NW 337 10,8 C 11,2 C 0,0 km/h (0 Bft)
09.08.2013 23:20 11,3 C 96 % 1025,1 hPa 0,0 l/m 0,0 km/h (0 Bft) W-NW 292 10,7 C 11,2 C 0,0 km/h (0 Bft)
09.08.2013 23:25 11,3 C 96 % 1025,1 hPa 0,0 l/m 0,0 km/h (0 Bft) NO 45 10,7 C 11,1 C 0,0 km/h (0 Bft)
09.08.2013 23:30 11,3 C 96 % 1025,1 hPa 0,0 l/m 0,0 km/h (0 Bft) NO 45 10,7 C 11,1 C 0,0 km/h (0 Bft)
09.08.2013 23:35 11,2 C 96 % 1025,1 hPa 0,0 l/m 0,0 km/h (0 Bft) N-NW 337 10,6 C 11,0 C 0,0 km/h (0 Bft)
09.08.2013 23:40 11,2 C 96 % 1024,9 hPa 0,0 l/m 0,0 km/h (0 Bft) S-SW 202 10,6 C 11,0 C 0,0 km/h (0 Bft)
09.08.2013 23:45 11,1 C 96 % 1024,9 hPa 0,0 l/m 0,0 km/h (0 Bft) SO 135 10,5 C 11,0 C 1,6 km/h (1 Bft)
09.08.2013 23:50 11,2 C 96 % 1024,9 hPa 0,0 l/m 0,3 km/h (0 Bft) W-SW 247 10,6 C 11,0 C 0,0 km/h (0 Bft)
09.08.2013 23:55 11,1 C 96 % 1024,9 hPa 0,0 l/m 0,3 km/h (0 Bft) S-SW 202 10,5 C 11,0 C 0,0 km/h (0 Bft)
_ Min-Zeit 23:55 00:25 10:00 - 23:45 - - 23:55 23:55 23:55
Minimum _ 11,1 C 81 % 1022,3 hPa - 0,0 km/h (0 Bft) - - 10,5 C 11,0 C 0,0 km/h (0 Bft)
_ Max-Zeit 00:15 23:55 23:35 14:25 14:30 - - 10:05 11:35 16:10
Maximum _ 17,4 C 96 % 1025,1 hPa 1,4 l/m 6,6 km/h
S-SO (2 Bft)
- - 15,5 C 17,7 C 13,0 km/h
W (3 Bft)
Durchschnitt _ 15,0 C 90 % 1023,3 hPa #29,5 l/m 1,6 km/h (1 Bft) S - 13,5 C 15,0 C 2,2 km/h (1 Bft)